Orbital Elements at Epoch 2459200.5 (2020-Dec-17.0) TDB
Reference: JPL 21 (heliocentric ecliptic J2000)
Element | Value | Uncertainty (1-sigma) | Units |
e | .1601697902036365 | 3.8886e-08 | |
a | 2.35575567838249 | 9.0088e-09 | au |
q | 1.978434785604941 | 9.2284e-08 | au |
i | 4.880842788908774 | 4.4114e-06 | deg |
node | 338.9014566742417 | 4.3322e-05 | deg |
peri | 24.82562821572381 | 4.4898e-05 | deg |
M | 321.6126105721962 | 1.2204e-05 | deg |
tp | 2459341.325037171603 (2021-May-06.82503717) | 4.5101e-05 | TDB |
period | 1320.668431416111 3.62 | 7.5757e-06 2.074e-08 | d yr |
n | .2725892369623641 | 1.5636e-09 | deg/d |
Q | 2.733076571160039 | 1.0452e-08 | au |
|
| | Orbit Determination Parameters
Additional Information
|